Regional Weather Roundup
Issued by NWS

Home | Current Version | Previous Version | Text Only | Print | Product List | Glossary On
Versions: 1 2 3 4 5 6 7 8 9 10 11 12 13 14 15 16 17 18 19 20 21 22 23 24 25 26 27 28 29 30 31 32 33 34 35 36 37 38 39 40 41 42 43 44 45 46 47 48 49 50
000
ASUS43 KDTX 250610
RWRMI
MICHIGAN HOURLY REGIONAL WEATHER ROUNDUP
NATIONAL WEATHER SERVICE DETROIT/PONTIAC MI
200 AM EDT WED MAY 25 2016

NOTE: "FAIR" INDICATES FEW OR NO CLOUDS BELOW 12,000 FEET WITH NO
SIGNIFICANT WEATHER AND/OR OBSTRUCTION TO VISIBILITY.

MIZ047>049-052>055-059>063-066>070-074>076-081>083-250700-
SOUTHEAST LOWER MICHIGAN

CITY           SKY/WX    TMP DP  RH WIND       PRES   REMARKS
ADRIAN         CLEAR     64  45  49 W5        30.04S
6HR MIN TEMP:  64; 6HR MAX TEMP:  80;

ALMA           PTCLDY    62  56  80 SW7       29.99F
ANN ARBOR      CLEAR     53  50  89 CALM      30.02S
BAD AXE        CLOUDY    64  53  66 CALM      30.01R
CARO           CLOUDY    61  56  83 CALM      30.00S
DETROIT CITY   CLEAR     68  46  45 SW7       30.01S
6HR MIN TEMP:  68; 6HR MAX TEMP:  79;

DETROIT        MOCLDY    65  49  56 S3        30.03S
6HR MIN TEMP:  65; 6HR MAX TEMP:  82;

FLINT          MOCLDY    71  50  47 S7        29.99F
6HR MIN TEMP:  65; 6HR MAX TEMP:  82;

GROSSE ILE     CLEAR     70  43  37 SW5       30.01S
HILLSDALE      CLEAR     68  41  37 S7        30.04S
6HR MIN TEMP:  67; 6HR MAX TEMP:  79;

HOWELL         PTCLDY    66  48  51 SW5       30.01S

CITY           SKY/WX    TMP DP  RH WIND       PRES   REMARKS
JACKSON        CLOUDY    65  48  54 SW5       30.02S
6HR MIN TEMP:  62; 6HR MAX TEMP:  79;

LAMBERTVILLE   CLEAR     66  45  45 S5        30.03F
6HR MIN TEMP:  66; 6HR MAX TEMP:  82;

LANSING        CLOUDY    68  50  52 SW8       30.01S
6HR MIN TEMP:  67; 6HR MAX TEMP:  80;

LAPEER         MOCLDY    58  54  86 CALM      30.00S
6HR MIN TEMP:  57; 6HR MAX TEMP:  81;

MASON          PTCLDY    67  49  52 CALM      30.01S
MONROE         CLEAR     65  46  50 SW5       30.02S
MT. CLEMENS    PTCLDY    69  50  51 SW7       30.00S
6HR MIN TEMP:  66; 6HR MAX TEMP:  74;

PONTIAC        CLEAR     68  49  50 SW5       30.01S
6HR MIN TEMP:  66; 6HR MAX TEMP:  80;

PORT HOPE        N/A     60  52  74 NW5       30.00R
6HR MIN TEMP:  60; 6HR MAX TEMP:  82; 6HR PCP:  0.01;

PORT HURON     CLEAR     57  52  82 CALM      30.01R
TRI CITIES     CLOUDY    72  55  55 CALM      30.00R
6HR MIN TEMP:  70; 6HR MAX TEMP:  82; 6HR PCP: TRACE;

MIDLAND        CLOUDY    63  62  96 CALM      29.98S
6HR MIN TEMP:  63; 6HR MAX TEMP:  80;

TROY           CLEAR     70  49  47 SW5       30.03S
SAGINAW HB     MOCLDY    66  54  63 CALM      29.99S
$$
MIZ043>046-050>051-056>058-064>065-071>073-077>080-250700-
SOUTHWEST LOWER MICHIGAN

CITY           SKY/WX    TMP DP  RH WIND       PRES   REMARKS
BATTLE CREEK   CLOUDY    66  50  56 S9        30.02R
6HR MIN TEMP:  65; 6HR MAX TEMP:  79;

BENTON HARBOR  CLOUDY    71  54  54 S6        29.99R
6HR MIN TEMP:  69; 6HR MAX TEMP:  83;

BIG RAPIDS     CLOUDY    63  62  95 CALM      29.98S
6HR MIN TEMP:  63; 6HR MAX TEMP:  75; 6HR PCP:  0.10;

COLDWATER      CLEAR     67  48  50 SW6       30.03R
6HR MIN TEMP:  66; 6HR MAX TEMP:  79;

FREMONT        CLOUDY    66  57  74 SE5       29.97S
HOLLAND        PTCLDY    68  54  60 W7        29.99R
6HR MIN TEMP:  68; 6HR MAX TEMP:  78;

GRAND RAPIDS   PTCLDY    71  51  49 W6        29.99R
6HR MIN TEMP:  69; 6HR MAX TEMP:  83; 6HR PCP: TRACE;

IONIA          FAIR      69  49  49 SW9       29.99R
6HR MIN TEMP:  64; 6HR MAX TEMP:  80;

KALAMAZOO      PTCLDY    64  52  64 S8        30.01S
6HR MIN TEMP:  63; 6HR MAX TEMP:  82;

LUDINGTON      CLEAR     55  54  99 CALM      29.96S
6HR MIN TEMP:  55; 6HR MAX TEMP:  69;

MARSHALL       CLOUDY    68  50  53 CALM      30.02R
6HR MIN TEMP:  67; 6HR MAX TEMP:  80;

MOUNT PLEASANT CLOUDY    64  62  91 CALM      29.98S
6HR MIN TEMP:  63; 6HR MAX TEMP:  79; 6HR PCP:  0.01;

MUSKEGON       PTCLDY    67  51  56 S3        29.97S
6HR MIN TEMP:  66; 6HR MAX TEMP:  78;

SOUTH HAVEN    CLOUDY    71  54  54 SW5       29.99R
$$
MIZ016>042-250700-
NORTHERN LOWER MICHIGAN

CITY           SKY/WX    TMP DP  RH WIND       PRES   REMARKS
ALPENA         MOCLDY    59  53  80 CALM      29.97S
6HR MIN TEMP:  59; 6HR MAX TEMP:  78; 6HR PCP: TRACE;

BEAVER ISLAND  MOCLDY    49  49  99 CALM      29.99R FOG
6HR MIN TEMP:  47; 6HR MAX TEMP:  56;

BELLAIRE       FOG       53  52  96 CALM      29.98R VSB 1/4
6HR MIN TEMP:  52; 6HR MAX TEMP:  75;

CADILLAC       CLEAR     58  53  83 CALM      29.99S
CHARLEVOIX     CLEAR     53  53 100 CALM      30.01S FOG
FRANKFORT      PTCLDY    62  54  75 CALM      29.96S
GAYLORD        CLEAR     58  56  93 SW3       29.99S FOG
6HR MIN TEMP:  58; 6HR MAX TEMP:  76; 6HR PCP:  0.02;

GRAYLING       CLEAR     56  51  83 CALM      30.00S
6HR MIN TEMP:  56; 6HR MAX TEMP:  78;

HARBOR SPRINGS CLEAR     54  53  97 CALM      29.99R FOG
HOUGHTON LAKE  PTCLDY    59  54  83 CALM      29.99S
6HR MIN TEMP:  58; 6HR MAX TEMP:  76; 6HR PCP: TRACE;

MANISTEE       CLEAR     55  50  82 E3        29.97S
OSCODA         CLOUDY    62  50  64 E3        29.99R
6HR MIN TEMP:  62; 6HR MAX TEMP:  82;

PELLSTON       FOG       52  51  97 CALM      29.99R VSB 1/4
ROGERS CITY    CLEAR     57  55  91 SW3       29.98S
TRAVERSE CITY  CLEAR     57  51  80 CALM      29.97R
6HR MIN TEMP:  56; 6HR MAX TEMP:  78;

$$
MIZ007>008-015-250700-
EASTERN UPPER MICHIGAN

CITY           SKY/WX    TMP DP  RH WIND       PRES   REMARKS
KINROSS          N/A     54  54 100 NW7       29.98S VSB 3/4
6HR MIN TEMP:  54; 6HR MAX TEMP:  59;

MACKINAC ISLAN CLEAR     54  54 100 W3        29.98S FOG
6HR MIN TEMP:  54; 6HR MAX TEMP:  59; 6HR PCP:  0.03;

NEWBERRY       FOG       53  52  97 N3        29.99S VSB 1/2
6HR MIN TEMP:  53; 6HR MAX TEMP:  61;

S. S. MARIE    CLOUDY    54  53  97 NW3       29.98R FOG
6HR MIN TEMP:  53; 6HR MAX TEMP:  61; 6HR PCP:  0.01;

MUNISING         N/A     47  46  97 N7        30.02R
6HR MIN TEMP:  45; 6HR MAX TEMP:  48;

$$
MIZ004>006-011>014-085-250700-
CENTRAL UPPER MICHIGAN

CITY           SKY/WX    TMP DP  RH WIND       PRES   REMARKS
MANISTIQUE     CLOUDY    57  56  97 N8        29.98S
6HR MIN TEMP:  50; 6HR MAX TEMP:  57;

ESCANABA       CLOUDY    57  55  94 N7        29.98R
6HR MIN TEMP:  55; 6HR MAX TEMP:  63;

MENOMINEE      FOG       55  55 100 CALM      29.98R VSB 3/4
6HR MIN TEMP:  55; 6HR MAX TEMP:  64;

SAWYER-GWINN   FOG       47  46  97 N9        30.03S VSB 1/2
6HR MIN TEMP:  45; 6HR MAX TEMP:  54;

$$
MIZ001>003-009>011-084-250700-
WESTERN UPPER MICHIGAN

CITY           SKY/WX    TMP DP  RH WIND       PRES   REMARKS
IRON MOUNTAIN  CLOUDY    61  59  93 CALM      29.98R
6HR MIN TEMP:  60; 6HR MAX TEMP:  63; 6HR PCP:  0.73;

HOUGHTON       CLOUDY    50  48  93 E9        30.03S
6HR MIN TEMP:  50; 6HR MAX TEMP:  53;

COPPER HARBOR    N/A     49  48  97 CALM      30.04R
6HR MIN TEMP:  46; 6HR MAX TEMP:  50;

IRONWOOD       CLOUDY    52  52 100 MISG      29.99S VSB 1
$$

ABBREVIATIONS USED IN REMARKS
   TC - TEMPERATURE IN CELSIUS
  WCI - WIND CHILL INDEX
   HX - HEAT INDEX
  VSB - VISIBILITY





USA.gov is the U.S. government's official web portal to all federal, state and local government web resources and services.